Flag for Germany Weather past 2 weeks in Troisdorf, North Rhine-Westphalia, Germany

Now
63 °F

Scattered clouds.


Feels Like: 63 °F
Forecast: 44 / 67 °F
Wind: 3 mph from North

Location: Koeln / Bonn

Current Time: Aug 20, 2014 at 1:27:17 PM

Latest Report: Aug 20, 2014 at 12:50 PM


Visibility: N/A

Pressure: 30.01 "Hg

Humidity: 49%

Dew point: 43 °F

Location of TroisdorfLocation

Historic Weather in Troisdorf — Graph

°F

Troisdorf temperature yesterday

Maximum temperature yesterday: 63 °F (at 11:20 AM)
Minimum temperature yesterday: 48 °F (at 11:20 PM)
Average temperature yesterday: 55 °F

Past Weeks' High & Low Weather Summary

 TemperatureHumidityPressure
High79 °F (Aug 8, 12:20 PM)100% (Aug 16, 1:50 AM)30.12 "Hg (Aug 16, 1:50 AM)
Low45 °F (Aug 20, 5:20 AM)38% (Aug 5, 5:50 PM)29.62 "Hg (Aug 10, 6:20 PM)
Average62 °F78%29.88 "Hg
* Reported Aug 5 12:20 PM — Aug 20 12:20 PM, Troisdorf, Weather by CustomWeather, © 2014

Note: Actual official high and low records may vary slightly from our data, if they occured in-between our weather recording intervals... More about our weather records

Advertising

Troisdorf weather history for previous 24 hours

 ConditionsComfort  
Time TempWeatherWind HumidityBarometerVisibility
12:20 PM
Aug 20
59 °FScattered clouds.6 mph59%30.01 "HgN/A
11:50 AM61 °FScattered clouds.7 mph63%30.01 "HgN/A
11:20 AM61 °FScattered clouds.5 mph63%30.01 "HgN/A
10:50 AM59 °FPassing clouds.5 mph63%30.01 "HgN/A
10:20 AM57 °FSunny.3 mph72%30.01 "Hg10 mi
9:50 AM55 °FSunny.3 mph72%30.01 "Hg10 mi
9:20 AM54 °FSunny.3 mph77%30.01 "Hg10 mi
8:50 AM52 °FSunny.7 mph82%30.01 "Hg10 mi
8:20 AM50 °FSunny.6 mph88%30.01 "Hg10 mi
7:50 AM46 °FSunny.3 mph93%30.01 "Hg10 mi
7:20 AM45 °FClear.3 mph100%30.01 "Hg10 mi
6:50 AM45 °FFog.3 mph93%30.01 "HgN/A
6:20 AM45 °FFog.2 mph93%30.01 "HgN/A
5:50 AM45 °FFog.5 mph93%30.01 "HgN/A
5:20 AM45 °FFog.5 mph93%30.01 "HgN/A
4:50 AM46 °FFog.3 mph93%30.01 "HgN/A
4:20 AM46 °FClear.3 mph93%29.98 "Hg10 mi
3:50 AM46 °FClear.2 mph93%29.98 "Hg10 mi
3:20 AM48 °FClear.2 mph87%29.98 "Hg10 mi
2:50 AM48 °FPassing clouds.5 mph87%29.98 "HgN/A
2:20 AM48 °FPassing clouds.2 mph87%29.98 "HgN/A
1:50 AM48 °FPassing clouds.3 mph94%29.98 "HgN/A
1:20 AM46 °FPassing clouds.5 mph93%29.98 "HgN/A
12:50 AM48 °FPassing clouds.5 mph94%29.98 "HgN/A
12:20 AM48 °FClear.3 mph94%29.98 "Hg10 mi
11:50 PM
Aug 19
48 °FClear.2 mph94%29.98 "Hg10 mi
11:20 PM48 °FClear.2 mph94%29.98 "Hg10 mi
10:50 PM50 °FPassing clouds.3 mph82%29.98 "HgN/A
10:20 PM50 °FPassing clouds.2 mph88%29.95 "HgN/A
9:50 PM50 °FPassing clouds.3 mph88%29.95 "HgN/A
9:20 PM52 °FPassing clouds.7 mph82%29.95 "HgN/A
8:50 PM54 °FPassing clouds.7 mph77%29.92 "HgN/A
8:20 PM55 °FScattered showers. Scattered clouds.8 mph72%29.92 "HgN/A
7:50 PM57 °FScattered showers. Partly sunny.12 mph63%29.92 "HgN/A
7:20 PM55 °FSprinkles. Partly sunny.8 mph72%29.89 "HgN/A
6:50 PM57 °FScattered showers. Broken clouds.13 mph67%29.89 "HgN/A
6:20 PM59 °FScattered clouds.17 mph59%29.89 "HgN/A
5:50 PM59 °FScattered showers. Broken clouds.8 mph68%29.89 "HgN/A
5:20 PM59 °FBroken clouds.9 mph68%29.89 "HgN/A
4:50 PM59 °FPartly sunny.12 mph77%29.89 "HgN/A
4:20 PM57 °FPartly sunny.12 mph82%29.86 "HgN/A
3:50 PM55 °FBroken clouds.8 mph88%29.86 "HgN/A
3:20 PM55 °FLight rain. Partly sunny.8 mph88%29.86 "HgN/A
2:50 PM55 °FLight rain. Mostly cloudy.10 mph94%29.86 "HgN/A
2:20 PM55 °FRain. More clouds than sun.10 mph88%29.86 "HgN/A
1:50 PM55 °FLots of rain. Broken clouds.13 mph88%29.86 "Hg5 mi
1:20 PM59 °FScattered showers. Partly sunny.9 mph82%29.83 "HgN/A
Weather by CustomWeather, © 2014

See weather overviewHow to use our weather pages